When you browse on this site, cookies collect data to enhance your experience and personalize the content and advertising you see.
Visit our Privacy Policy to learn more. By continuing to use the site, you agree to this use of cookies and data.
  • In Czech Republic
  • List of Countries
  • For 7 days
  • Water Temperature
  • Weather Map
  • Weather Widgets
  • user-avatar
    Login

    Hourly Weather Fedorovka

    Today, 19 September, Thursday

    Time Temperature Precipitation Wind Pressure Humidity
    00:00 +5°C° 0 mm 4 mps 741 mmHg 94%
    01:00 +4°C° 0 mm 4 mps 742 mmHg 95%
    02:00 +4°C° 0 mm 3 mps 742 mmHg 96%
    03:00 +4°C° 0 mm 3 mps 742 mmHg 96%
    04:00 +3°C° 0 mm 3 mps 743 mmHg 97%
    05:00 +3°C° 0 mm 3 mps 743 mmHg 97%
    06:00 +4°C° 0 mm 3 mps 744 mmHg 95%
    07:00 +5°C° 0 mm 3 mps 744 mmHg 93%
    08:00 +7°C° 0 mm 3 mps 745 mmHg 91%
    09:00 +8°C° 0 mm 3 mps 745 mmHg 87%
    10:00 +8°C° 0 mm 4 mps 745 mmHg 83%
    11:00 +10°C° 0 mm 4 mps 746 mmHg 79%
    12:00 +11°C° 0.4 mm 4 mps 746 mmHg 78%
    13:00 +11°C° 0.4 mm 4 mps 746 mmHg 77%
    14:00 +11°C° 0.4 mm 4 mps 746 mmHg 76%
    15:00 +11°C° 0.5 mm 4 mps 746 mmHg 79%
    16:00 +10°C° 0.5 mm 3 mps 746 mmHg 82%
    17:00 +10°C° 0.5 mm 3 mps 746 mmHg 84%
    18:00 +8°C° 0.2 mm 3 mps 746 mmHg 87%
    19:00 +7°C° 0.2 mm 2 mps 747 mmHg 90%
    20:00 +6°C° 0.2 mm 2 mps 747 mmHg 93%
    21:00 +6°C° 0 mm 2 mps 747 mmHg 93%
    22:00 +5°C° 0 mm 2 mps 747 mmHg 93%
    23:00 +6°C° 0 mm 1 mps 747 mmHg 93%

    Tomorrow, 20 September, Friday

    Time Temperature Precipitation Wind Pressure Humidity
    00:00 +6°C° 0 mm 1 mps 747 mmHg 93%
    01:00 +5°C° 0 mm 1 mps 747 mmHg 93%
    02:00 +5°C° 0 mm 1 mps 747 mmHg 93%
    03:00 +4°C° 0 mm 2 mps 747 mmHg 93%
    04:00 +4°C° 0 mm 2 mps 746 mmHg 94%
    05:00 +4°C° 0 mm 2 mps 746 mmHg 94%
    06:00 +5°C° 0 mm 2 mps 746 mmHg 93%
    07:00 +6°C° 0 mm 2 mps 746 mmHg 91%
    08:00 +7°C° 0 mm 3 mps 746 mmHg 90%
    09:00 +8°C° 0.1 mm 3 mps 746 mmHg 85%
    10:00 +9°C° 0.1 mm 3 mps 746 mmHg 80%
    11:00 +11°C° 0.1 mm 3 mps 746 mmHg 76%
    12:00 +10°C° 0.7 mm 4 mps 746 mmHg 77%
    13:00 +10°C° 0.7 mm 4 mps 746 mmHg 78%
    14:00 +10°C° 0.7 mm 4 mps 746 mmHg 79%
    15:00 +8°C° 0.4 mm 4 mps 746 mmHg 82%
    16:00 +7°C° 0.4 mm 4 mps 746 mmHg 85%
    17:00 +7°C° 0.4 mm 4 mps 746 mmHg 88%
    18:00 +7°C° 0 mm 3 mps 747 mmHg 90%
    19:00 +5°C° 0 mm 3 mps 747 mmHg 91%
    20:00 +4°C° 0 mm 3 mps 748 mmHg 93%
    21:00 +3°C° 0 mm 3 mps 748 mmHg 93%
    22:00 +3°C° 0 mm 3 mps 748 mmHg 93%
    23:00 +3°C° 0 mm 3 mps 748 mmHg 94%

    Day after tomorrow, 21 September, Saturday

    Time Temperature Precipitation Wind Pressure Humidity
    00:00 +2°C° 0 mm 3 mps 748 mmHg 94%
    01:00 +1°C° 0 mm 3 mps 748 mmHg 94%
    02:00 +1°C° 0 mm 3 mps 749 mmHg 94%
    03:00 +1°C° 0 mm 3 mps 749 mmHg 94%
    04:00 0°C° 0 mm 3 mps 749 mmHg 95%
    05:00 +1°C° 0 mm 2 mps 749 mmHg 95%
    06:00 +2°C° 0 mm 2 mps 749 mmHg 91%
    07:00 +3°C° 0 mm 2 mps 749 mmHg 88%
    08:00 +3°C° 0 mm 3 mps 749 mmHg 84%
    09:00 +4°C° 0 mm 3 mps 749 mmHg 77%
    10:00 +7°C° 0 mm 3 mps 748 mmHg 70%
    11:00 +8°C° 0 mm 3 mps 748 mmHg 63%
    12:00 +7°C° 0.1 mm 4 mps 748 mmHg 68%
    13:00 +7°C° 0.1 mm 5 mps 747 mmHg 74%
    14:00 +7°C° 0.1 mm 5 mps 747 mmHg 80%
    15:00 +6°C° 0.4 mm 5 mps 746 mmHg 85%
    16:00 +6°C° 0.4 mm 5 mps 745 mmHg 90%
    17:00 +6°C° 0.4 mm 5 mps 745 mmHg 94%
    18:00 +6°C° 0.2 mm 5 mps 744 mmHg 95%
    19:00 +7°C° 0.2 mm 4 mps 744 mmHg 96%
    20:00 +8°C° 0.2 mm 4 mps 744 mmHg 97%
    21:00 +8°C° 0.2 mm 5 mps 744 mmHg 96%
    22:00 +9°C° 0.2 mm 5 mps 743 mmHg 95%
    23:00 +10°C° 0.2 mm 5 mps 743 mmHg 94%

    22 September, Sunday

    Time Temperature Precipitation Wind Pressure Humidity
    00:00 +10°C° 0.3 mm 6 mps 743 mmHg 94%
    01:00 +10°C° 0.3 mm 6 mps 742 mmHg 93%
    02:00 +11°C° 0.3 mm 7 mps 742 mmHg 93%
    03:00 +10°C° 0.1 mm 7 mps 742 mmHg 92%
    04:00 +10°C° 0.1 mm 7 mps 742 mmHg 91%
    05:00 +10°C° 0.1 mm 7 mps 742 mmHg 90%
    06:00 +10°C° 0 mm 8 mps 742 mmHg 89%
    07:00 +10°C° 0 mm 8 mps 742 mmHg 88%
    08:00 +10°C° 0 mm 8 mps 742 mmHg 87%
    09:00 +10°C° 0.2 mm 8 mps 742 mmHg 86%
    10:00 +10°C° 0.2 mm 8 mps 742 mmHg 84%
    11:00 +10°C° 0.2 mm 8 mps 743 mmHg 82%
    12:00 +10°C° 0.1 mm 8 mps 743 mmHg 73%
    13:00 +10°C° 0.1 mm 8 mps 744 mmHg 64%
    14:00 +10°C° 0.1 mm 8 mps 745 mmHg 54%
    15:00 +9°C° 0 mm 6 mps 745 mmHg 57%
    16:00 +8°C° 0 mm 5 mps 746 mmHg 61%
    17:00 +8°C° 0 mm 4 mps 747 mmHg 64%
    18:00 +7°C° 0 mm 3 mps 747 mmHg 68%
    19:00 +5°C° 0 mm 3 mps 748 mmHg 72%
    20:00 +4°C° 0 mm 2 mps 748 mmHg 77%
    21:00 +4°C° 0 mm 2 mps 749 mmHg 78%
    22:00 +3°C° 0 mm 2 mps 749 mmHg 79%
    23:00 +3°C° 0 mm 2 mps 749 mmHg 80%

    23 September, Monday

    Time Temperature Precipitation Wind Pressure Humidity
    00:00 +2°C° 0 mm 2 mps 750 mmHg 80%
    01:00 +3°C° 0 mm 1 mps 750 mmHg 80%
    02:00 +3°C° 0 mm 1 mps 751 mmHg 80%
    03:00 +2°C° 0 mm 1 mps 751 mmHg 80%
    04:00 +1°C° 0 mm 0 mps 751 mmHg 80%
    05:00 +1°C° 0 mm 0 mps 751 mmHg 81%
    06:00 +2°C° 0 mm 0 mps 751 mmHg 76%
    07:00 +5°C° 0 mm 1 mps 751 mmHg 71%
    08:00 +6°C° 0 mm 1 mps 751 mmHg 66%
    09:00 +7°C° 0 mm 1 mps 751 mmHg 61%
    10:00 +8°C° 0 mm 2 mps 751 mmHg 56%
    11:00 +9°C° 0 mm 2 mps 750 mmHg 51%
    12:00 +10°C° 0 mm 3 mps 750 mmHg 50%
    13:00 +10°C° 0 mm 3 mps 749 mmHg 50%
    14:00 +11°C° 0 mm 3 mps 748 mmHg 49%
    15:00 +10°C° 0 mm 3 mps 747 mmHg 54%
    16:00 +9°C° 0 mm 3 mps 747 mmHg 59%
    17:00 +9°C° 0 mm 3 mps 746 mmHg 63%
    18:00 +8°C° 0 mm 3 mps 745 mmHg 64%
    19:00 +7°C° 0 mm 3 mps 745 mmHg 64%
    20:00 +5°C° 0 mm 4 mps 744 mmHg 64%
    21:00 +7°C° 0 mm 3 mps 744 mmHg 64%
    22:00 +7°C° 0 mm 3 mps 743 mmHg 65%
    23:00 +7°C° 0 mm 3 mps 742 mmHg 65%

    24 September, Tuesday

    Time Temperature Precipitation Wind Pressure Humidity
    00:00 +8°C° 0 mm 3 mps 742 mmHg 68%
    01:00 +9°C° 0 mm 3 mps 742 mmHg 71%
    02:00 +9°C° 0 mm 2 mps 741 mmHg 74%
    03:00 +10°C° 0 mm 2 mps 741 mmHg 79%
    04:00 +10°C° 0 mm 2 mps 740 mmHg 85%
    05:00 +10°C° 0 mm 2 mps 740 mmHg 90%
    06:00 +10°C° 0 mm 2 mps 740 mmHg 91%
    07:00 +10°C° 0 mm 2 mps 739 mmHg 93%
    08:00 +10°C° 0 mm 2 mps 739 mmHg 94%
    09:00 +12°C° 0.1 mm 1 mps 739 mmHg 92%
    10:00 +13°C° 0.1 mm 1 mps 739 mmHg 90%
    11:00 +14°C° 0.1 mm 1 mps 740 mmHg 88%
    12:00 +14°C° 0 mm 1 mps 739 mmHg 87%
    13:00 +14°C° 0 mm 2 mps 739 mmHg 85%
    14:00 +14°C° 0 mm 2 mps 739 mmHg 84%
    15:00 +14°C° 0 mm 2 mps 739 mmHg 87%
    16:00 +13°C° 0 mm 2 mps 739 mmHg 89%
    17:00 +11°C° 0 mm 3 mps 739 mmHg 92%
    18:00 +10°C° 0 mm 3 mps 740 mmHg 93%
    19:00 +10°C° 0 mm 3 mps 740 mmHg 95%
    20:00 +9°C° 0 mm 3 mps 740 mmHg 96%
    21:00 +9°C° 0 mm 3 mps 741 mmHg 96%
    22:00 +8°C° 0 mm 3 mps 741 mmHg 95%
    23:00 +8°C° 0 mm 3 mps 741 mmHg 95%
    Show more